[[{"header":{"parameterUnit":"m.s-1","parameterCategory":1,"la1":30.2991,"la2":30.254,"lo1":-89.0895,"lo2":-89.0444,"dy":0.0017,"dx":0.0017,"nx":28,"ny":28,"refTime":"2024-02-04T09:00:00:Z","depth":0,"parameterNumber":2,"parameterNumberName":"U-component_of_WINDS"},"data":[0,0,0,0,0,0,0,0,0,0,0,0,0,0,0,0,0,0,0,0,0,0,0,0,0,0,0,0,0,0,0,0,0,0,0,0,0,0,0,0,0,0,0,0,0,0,0,0,0,0,0,0,0,0,0,0,0,0,-11.1214,-11.1217,0,-11.151,-11.1513,-11.1516,-11.1464,-11.1459,-11.1454,-11.1449,-11.1753,-11.1766,-11.1779,0,0,0,0,0,0,0,0,0,0,0,0,0,-11.0607,-11.0619,-11.1214,-11.1218,-11.1221,-11.1509,-11.1513,-11.1517,-11.1465,-11.1459,-11.1452,-11.1447,-11.1749,-11.1764,-11.178,0,0,0,0,0,0,0,0,0,0,0,0,0,-11.0884,-11.0622,-11.1213,-11.123,-11.1234,-11.1508,-11.1513,-11.1518,-11.1466,-11.1459,-11.1451,-11.1444,-11.1744,-11.1763,-11.1782,-11.2058,0,0,-11.1842,-11.185,0,0,0,0,0,0,0,0,-11.0868,-11.0906,-11.1224,-11.1229,-11.1235,-11.1442,-11.1411,-11.1699,-11.1468,-11.1378,-11.1449,-11.144,-11.1656,-11.1682,-11.1755,-11.2073,-11.2086,-11.1843,-11.1855,-11.1863,-11.1869,0,0,0,0,0,0,0,-11.0849,-11.0893,-11.1331,-11.1228,-11.1235,-11.1224,-11.1254,-11.1465,-11.1558,-11.1386,-11.1383,-11.1418,-11.1658,-11.1736,-11.1762,-11.209,-11.1843,-11.186,-11.1872,-11.188,-11.2649,-11.2658,0,0,0,0,0,0,-11.0824,-11.0877,-11.1321,-11.134,-11.1028,-11.1241,-11.1275,-11.1383,-11.1555,-11.1574,-11.1425,-11.1415,-11.1707,-11.1739,-11.1772,-11.2106,-11.1863,-11.1881,-11.1893,-11.2641,-11.2651,-11.2661,0,0,0,0,0,0,-11.0811,-11.0864,-11.1309,-11.1108,-11.1164,-11.126,-11.1382,-11.1393,-11.1472,-11.1584,-11.1601,-11.1488,-11.1702,-11.1745,-11.1987,-11.2116,-11.189,-11.1908,-11.263,-11.2644,-11.2656,-11.2776,0,0,0,0,0,0,-11.0794,-11.086,-11.0965,-11.1111,-11.1175,-11.1519,-11.139,-11.1405,-11.1505,-11.1495,-11.1648,-11.1666,-11.1699,-11.1959,-11.2007,-11.2139,-11.1923,-11.2619,-11.2636,-11.2652,-11.2761,-11.2792,-11.2818,0,0,0,0,0,-11.0773,-11.0988,-11.0971,-11.1025,-11.1308,-11.1527,-11.1563,-11.1597,-11.1516,-11.1623,-11.1695,-11.1661,-11.2095,-11.1984,-11.2038,-11.2177,-11.2611,-11.2632,-11.2651,-11.2748,-11.2786,-11.2818,0,0,0,0,0,0,-11.0855,-11.1007,-11.099,-11.1258,-11.138,-11.1517,-11.1653,-11.1635,-11.1783,-11.1767,-11.1803,-11.1839,-11.2084,-11.2156,-11.203,-11.2454,-11.2342,-11.2373,-11.2398,-11.2434,-11.2462,-11.2439,-11.1939,0,0,0,0,0,-11.0904,-11.1069,-11.1193,-11.1418,-11.148,-11.1556,-11.1653,-11.1668,-11.1796,-11.1847,-11.1937,-11.2063,-11.2228,-11.2335,-11.2493,-11.2772,-11.2805,-11.2895,-11.2923,-11.2946,-11.2972,-11.3125,-11.3166,-11.2726,-11.2726,-11.2725,0,0,-11.1008,-11.1111,-11.1213,-11.1437,-11.1533,-11.1703,-11.16,-11.1784,-11.191,-11.1875,-11.2109,-11.2181,-11.2324,-11.2585,-11.2705,-11.2652,-11.3102,-11.2972,-11.2989,-11.3003,-11.3149,-11.3191,-11.3228,-11.2739,-11.2737,-11.2735,0,0,-11.1282,-11.1378,-11.1575,-11.1674,-11.1821,-11.187,-11.1918,-11.206,-11.2105,-11.234,-11.2318,-11.247,-11.2753,-11.2855,-11.2944,-11.3261,-11.3234,-11.3312,-11.3459,-11.3607,-11.3642,-11.3673,-11.3784,-11.3824,-11.3338,-11.3338,-11.3338,0,-11.1392,-11.1646,-11.1679,-11.1865,-11.1965,-11.1942,-11.2142,-11.2236,-11.2428,-11.2497,-11.2435,-11.279,-11.2885,-11.317,-11.3247,-11.3321,-11.3376,-11.3292,-11.3634,-11.3666,-11.3695,-11.3801,-11.3843,-11.3346,-11.3345,-11.3344,-11.3344,0,-11.1773,-11.1951,-11.2092,-11.2277,-11.2393,-11.2586,-11.2648,-11.2762,-11.2768,-11.2825,-11.3065,-11.3179,-11.3358,-11.3428,-11.3436,-11.3715,-11.3678,-11.3625,-11.3513,-11.3744,-11.3845,-11.3886,-11.3358,-11.3355,-11.3352,-11.335,0,0,-11.2105,-11.2306,-11.2358,-11.2441,-11.2603,-11.274,-11.2933,-11.3109,-11.3205,-11.3339,-11.3501,-11.3742,-11.3694,-11.3796,-11.3816,-11.3947,-11.4188,-11.3878,-11.3882,-11.393,-11.4501,-11.4538,-11.4584,-11.4173,-11.4181,-11.4188,-11.4489,0,-11.2393,-11.2731,-11.2767,-11.3069,-11.3233,-11.3215,-11.3382,-11.35,-11.3559,-11.3707,-11.3773,-11.3942,-11.3868,-11.3929,-11.4058,-11.4131,-11.4303,-11.4111,-11.4323,-11.4331,-11.4285,-11.4637,-11.4677,-11.4955,-11.4528,-11.4535,-11.454,0,-11.2773,-11.2917,-11.3235,-11.3375,-11.3445,-11.3595,-11.3759,-11.3901,-11.4035,-11.4069,-11.4183,-11.4187,-11.4386,-11.4268,-11.4543,-11.4411,-11.4501,-11.4551,-11.4563,-11.4581,-11.4447,-11.4663,-11.5045,-11.5085,-11.4603,-11.4598,-11.4593,0,-11.298,-11.3254,-11.348,-11.3552,-11.3721,-11.3827,-11.3902,-11.4028,-11.4132,-11.4277,-11.4344,-11.4511,-11.4601,-11.473,-11.4779,-11.4689,-11.5051,-11.4937,-11.5084,-11.5083,-11.5158,-11.5153,-11.5557,-11.5221,-11.5221,-11.522,-11.5219,0,-11.3296,-11.3491,-11.3575,-11.3713,-11.3932,-11.3973,-11.4188,-11.4259,-11.4372,-11.4524,-11.4521,-11.4664,-11.4721,-11.4874,-11.4914,-11.5134,-11.5176,-11.5209,-11.5216,-11.5208,-11.5203,-11.5265,-11.5246,-11.5231,-11.5229,-11.5226,-11.5224,0,-11.3562,-11.3626,-11.3871,-11.4012,-11.4052,-11.4206,-11.4327,-11.4461,-11.4519,-11.4712,-11.476,-11.4852,-11.5032,-11.5094,-11.5313,-11.5339,-11.5596,-11.5588,-11.555,-11.5551,-11.5693,-11.5678,-11.6149,-11.6212,-11.5837,-11.584,-11.5843,0,-11.3757,-11.3907,-11.4064,-11.4166,-11.4245,-11.4409,-11.4515,-11.4562,-11.4673,-11.4837,-11.4952,-11.5131,-11.5276,-11.5565,-11.5651,-11.5818,-11.5813,-11.5967,-11.5838,-11.5825,-11.5813,-11.5802,-11.5817,-11.599,-11.5994,-11.5997,-11.6,0,-11.4097,-11.4122,-11.4274,-11.444,-11.4566,-11.4698,-11.4826,-11.491,-11.4976,-11.5101,-11.5284,-11.5397,-11.5621,-11.5798,-11.5969,-11.6048,-11.6036,-11.604,-11.6082,-11.6073,-11.6044,-11.606,-11.5613,-11.6028,-11.6025,-11.6023,-11.6022,-11.6021,-11.4333,-11.4465,-11.4596,-11.4766,-11.4868,-11.4988,-11.5121,-11.5196,-11.535,-11.5534,-11.5554,-11.5752,-11.5884,-11.6112,-11.6199,-11.6355,-11.6312,-11.6374,-11.639,-11.6403,-11.6413,-11.6022,-11.6387,-11.6386,-11.6386,-11.6385,-11.6385,0,-11.467,-11.4754,-11.4911,-11.509,-11.5224,-11.5202,-11.5343,-11.5456,-11.563,-11.5754,-11.5897,-11.6109,-11.6282,-11.6383,-11.6556,-11.6661,-11.666,-11.6705,-11.6696,-11.6714,-11.6442,-11.6387,-11.6703,-11.6703,-11.6703,-11.6703,-11.6702,-11.6702,-11.4862,-11.5083,-11.5124,-11.5397,-11.548,-11.5673,-11.5756,-11.5867,-11.5965,-11.6202,-11.6345,-11.641,-11.6525,-11.6707,-11.6864,-11.689,-11.6952,-11.7002,-11.7022,-11.6766,-11.6733,-11.6702,-11.665,-11.7015,-11.7016,-11.7281,-11.7283,-11.7285]},{"header":{"parameterUnit":"m.s-1","parameterCategory":1,"la1":30.2991,"la2":30.254,"lo1":-89.0895,"lo2":-89.0444,"dy":0.0017,"dx":0.0017,"nx":28,"ny":28,"refTime":"2024-02-04T09:00:00:Z","depth":0,"parameterNumber":3,"parameterNumberName":"V-component_of_WINDS"},"data":[0,0,0,0,0,0,0,0,0,0,0,0,0,0,0,0,0,0,0,0,0,0,0,0,0,0,0,0,0,0,0,0,0,0,0,0,0,0,0,0,0,0,0,0,0,0,0,0,0,0,0,0,0,0,0,0,0,0,1.6702,1.6703,0,1.6787,1.6788,1.6788,1.6777,1.6776,1.6774,1.6773,1.6859,1.6863,1.6866,0,0,0,0,0,0,0,0,0,0,0,0,0,1.6533,1.6537,1.6702,1.6703,1.6704,1.6786,1.6788,1.6789,1.6778,1.6776,1.6774,1.6773,1.6858,1.6862,1.6867,0,0,0,0,0,0,0,0,0,0,0,0,0,1.6611,1.6538,1.6702,1.6709,1.671,1.6786,1.6788,1.6789,1.6778,1.6776,1.6774,1.6772,1.6857,1.6862,1.6867,1.6942,0,0,1.6884,1.6886,0,0,0,0,0,0,0,0,1.6607,1.6617,1.6707,1.6708,1.671,1.6769,1.676,1.684,1.6778,1.6752,1.6773,1.6771,1.6831,1.6838,1.6859,1.6946,1.695,1.6884,1.6888,1.689,1.6891,0,0,0,0,0,0,0,1.6601,1.6614,1.6736,1.6708,1.671,1.6708,1.6717,1.6775,1.6802,1.6754,1.6754,1.6764,1.6832,1.6854,1.6861,1.6951,1.6884,1.6889,1.6892,1.6894,1.7107,1.711,0,0,0,0,0,0,1.6594,1.6609,1.6733,1.6738,1.6652,1.6713,1.6723,1.6752,1.6802,1.6807,1.6765,1.6763,1.6846,1.6855,1.6864,1.6957,1.689,1.6895,1.6898,1.7105,1.7108,1.7111,0,0,0,0,0,0,1.6591,1.6605,1.6729,1.6674,1.6689,1.6718,1.6751,1.6755,1.6777,1.681,1.6815,1.6783,1.6844,1.6856,1.6924,1.6959,1.6897,1.6902,1.7102,1.7106,1.7109,1.7142,0,0,0,0,0,0,1.6586,1.6604,1.6632,1.6674,1.6692,1.6787,1.6754,1.6758,1.6786,1.6784,1.6828,1.6833,1.6844,1.6916,1.6929,1.6966,1.6906,1.7099,1.7104,1.7108,1.7137,1.7146,1.7153,0,0,0,0,0,1.658,1.6637,1.6634,1.6648,1.6728,1.6789,1.68,1.6811,1.6789,1.6818,1.684,1.6832,1.6953,1.6923,1.6937,1.6976,1.7097,1.7103,1.7108,1.7134,1.7144,1.7153,0,0,0,0,0,0,1.6598,1.6643,1.6639,1.6712,1.6747,1.6787,1.6824,1.6821,1.6862,1.6858,1.687,1.688,1.6949,1.6969,1.6934,1.7053,1.7022,1.7031,1.7037,1.7047,1.7055,1.7049,1.6911,0,0,0,0,0,1.661,1.6656,1.6693,1.6754,1.6771,1.6795,1.6822,1.6828,1.6865,1.6879,1.6906,1.6942,1.6989,1.7019,1.7063,1.7141,1.7151,1.7175,1.7183,1.7189,1.7196,1.7241,1.7253,1.7129,1.7129,1.7128,0,0,1.6636,1.6667,1.6694,1.6758,1.6786,1.6834,1.6807,1.6859,1.6895,1.6887,1.6953,1.6974,1.7015,1.7088,1.7122,1.7107,1.7233,1.7196,1.7201,1.7205,1.7248,1.726,1.727,1.7132,1.7132,1.7131,0,0,1.6709,1.6736,1.679,1.6819,1.6862,1.6878,1.6891,1.6933,1.6947,1.7013,1.7009,1.7052,1.7132,1.7162,1.7188,1.7275,1.727,1.7289,1.733,1.7374,1.7384,1.7392,1.7425,1.7437,1.7297,1.7297,1.7297,0,1.6736,1.6807,1.6818,1.6871,1.69,1.6896,1.6953,1.698,1.7036,1.7056,1.7039,1.7141,1.7168,1.725,1.7271,1.7292,1.7309,1.7284,1.7381,1.739,1.7399,1.743,1.7442,1.7299,1.7299,1.7298,1.7298,0,1.684,1.689,1.6929,1.6983,1.7017,1.7071,1.7091,1.7124,1.7127,1.7145,1.7214,1.7247,1.73,1.7319,1.7323,1.7402,1.7392,1.7378,1.7348,1.7412,1.7442,1.7454,1.7302,1.7301,1.7301,1.73,0,0,1.6924,1.6986,1.7,1.7026,1.7074,1.7114,1.7169,1.7221,1.7249,1.7288,1.7336,1.7404,1.7393,1.7422,1.7429,1.7467,1.7537,1.7449,1.745,1.7465,1.7629,1.764,1.7654,1.7534,1.7536,1.7538,1.7626,0,1.7002,1.7099,1.7112,1.7199,1.7246,1.7245,1.7293,1.7329,1.7348,1.7391,1.7412,1.7461,1.7441,1.7459,1.7497,1.752,1.757,1.7514,1.7579,1.7581,1.757,1.7669,1.7681,1.7762,1.7638,1.764,1.7641,0,1.7106,1.7149,1.724,1.7285,1.7305,1.7348,1.7398,1.744,1.7481,1.7492,1.7527,1.753,1.7588,1.7555,1.7637,1.7599,1.7626,1.7642,1.7646,1.7653,1.7615,1.768,1.7788,1.7801,1.7659,1.7658,1.7657,0,1.7161,1.7241,1.7307,1.7329,1.7382,1.7413,1.7436,1.7475,1.7507,1.7551,1.7571,1.7621,1.7649,1.7688,1.7705,1.7679,1.7787,1.7754,1.7799,1.7798,1.7822,1.782,1.7937,1.7837,1.7837,1.7837,1.7837,0,1.7247,1.7303,1.7333,1.7373,1.7437,1.7452,1.7515,1.7538,1.7573,1.7619,1.7621,1.7664,1.7683,1.773,1.7744,1.7811,1.7822,1.7834,1.7837,1.7835,1.7834,1.7853,1.7849,1.784,1.784,1.7839,1.7838,0,1.7319,1.734,1.7412,1.7457,1.747,1.7515,1.7554,1.7595,1.7614,1.7672,1.7687,1.7717,1.7772,1.7793,1.786,1.7869,1.7947,1.7945,1.7934,1.7935,1.7979,1.7975,1.8113,1.8133,1.8019,1.802,1.8021,0,1.7373,1.7416,1.7467,1.7498,1.7523,1.7572,1.7605,1.7622,1.7656,1.7708,1.7742,1.7797,1.7843,1.7931,1.796,1.8012,1.8012,1.8057,1.8019,1.8016,1.8015,1.8012,1.8018,1.8064,1.8065,1.8066,1.8067,0,1.7467,1.7476,1.7523,1.7575,1.7614,1.7655,1.7695,1.772,1.7744,1.7782,1.7839,1.7874,1.7944,1.8,1.8054,1.8078,1.8078,1.8078,1.8092,1.809,1.8082,1.8089,1.7954,1.8075,1.8074,1.8074,1.8073,1.8073,1.7533,1.7572,1.7615,1.7668,1.77,1.7738,1.7779,1.7804,1.7852,1.791,1.7918,1.7979,1.8022,1.8094,1.8122,1.8171,1.816,1.8178,1.8183,1.8188,1.8192,1.8074,1.8181,1.8181,1.8181,1.818,1.818,0,1.7629,1.7656,1.7705,1.7762,1.7804,1.7799,1.7844,1.788,1.7935,1.7974,1.802,1.8086,1.8141,1.8175,1.823,1.8263,1.8264,1.8277,1.8276,1.8282,1.8199,1.8182,1.8276,1.8276,1.8276,1.8276,1.8276,1.8275,1.7684,1.7752,1.7766,1.7851,1.7879,1.794,1.7966,1.8002,1.8034,1.8109,1.8155,1.8176,1.8215,1.8273,1.8324,1.8332,1.8353,1.8368,1.8375,1.8297,1.8287,1.8278,1.8263,1.8372,1.8372,1.8455,1.8456,1.8456]}]]